Wind_Speed
12 12 13 14 14 16 17 18 20 21 22 23 24 25 25 26 26 27 28 29 30 31 32 33 34 35 36 37 38 39 39 39 39 40 40 40 40 40 39 39 39 38 38
16 16 16 17 18 19 20 21 23 23 25 26 27 28 28 29 30 31 32 33 34 35 36 37 38 39 40 41 42 42 43 44 44 44 44 44 44 44 43 43 42 42 42
19 19 20 21 22 22 23 23 24 26 27 28 30 31 32 33 34 35 36 37 38 39 40 40 41 42 42 43 44 45 45 46 47 47 48 48 48 48 48 47 47 47 46
22 23 23 24 25 25 25 26 26 27 29 30 32 34 35 36 37 38 39 40 41 42 43 44 44 45 45 46 47 47 48 48 49 50 51 51 52 52 52 51 51 50 50
26 26 26 27 28 28 28 29 29 30 31 32 33 35 36 38 40 41 42 42 43 45 46 46 47 47 48 49 50 51 51 52 52 52 53 53 53 53 54 54 54 53 53
28 28 29 29 30 30 30 30 30 32 33 34 35 37 38 40 41 42 43 44 45 46 48 49 49 50 51 51 52 53 54 54 55 55 55 55 55 55 55 55 55 55 55
29 30 30 30 31 32 31 31 31 33 33 35 37 38 39 41 43 44 44 45 47 48 50 51 52 53 54 54 55 55 56 56 57 57 57 57 56 57 57 56 57 56 56
29 29 29 30 32 33 34 34 35 35 35 36 38 39 41 43 44 45 46 47 49 50 52 53 54 56 57 57 58 59 59 59 59 58 58 58 58 58 59 59 59 59 59
28 29 30 31 32 34 35 36 37 37 38 39 40 42 44 45 47 47 48 50 52 53 55 57 58 59 60 61 61 62 62 61 60 60 60 60 61 61 62 62 61 61 61
28 29 30 32 34 36 38 39 40 40 41 42 43 44 46 47 49 50 51 53 55 57 58 59 61 62 62 62 62 62 62 62 62 62 62 63 63 64 65 65 65 65 64
29 31 32 34 37 38 40 41 43 44 45 46 46 48 49 51 52 54 55 56 58 60 61 62 63 64 63 63 63 63 64 65 65 66 66 67 68 68 69 69 69 69 68
33 34 35 38 40 42 44 46 47 47 48 50 51 52 53 55 56 58 58 58 59 60 62 63 63 64 64 65 65 66 67 68 68 69 70 71 72 73 73 73 73 72 71
37 38 40 43 44 46 48 50 51 52 53 54 56 57 58 59 60 61 61 61 61 60 61 62 64 65 66 66 67 68 69 70 71 72 73 74 74 75 75 74 74 73 72
42 44 46 48 50 51 52 54 55 55 56 58 59 60 62 62 62 62 62 62 61 61 61 62 63 65 66 67 68 69 70 70 71 72 73 73 74 74 74 74 73 72 71
48 49 51 53 55 56 56 57 58 59 60 61 62 62 62 62 62 62 62 62 62 60 58 60 62 64 66 66 68 69 69 70 71 71 71 70 70 69 68 67 67 66 66
52 54 56 57 58 59 58 59 60 60 61 61 61 61 61 61 61 61 60 62 62 61 60 60 62 64 66 67 68 68 67 66 65 63 62 60 59 58 58 57 58 58 59
55 57 58 58 59 59 60 60 60 61 61 61 61 61 61 60 60 60 61 61 61 61 61 60 63 64 66 66 65 63 60 57 54 52 50 49 48 47 46 46 47 47 49
58 58 59 59 59 59 60 60 60 60 60 60 59 59 59 59 59 60 60 60 60 61 61 60 61 62 62 60 57 53 50 46 44 42 40 39 38 37 38 38 39 40 41
59 59 58 58 59 59 59 58 58 58 58 57 57 58 58 58 58 59 59 59 59 60 60 59 57 55 52 49 46 42 39 37 35 34 33 33 33 34 34 34 35 35 36
59 58 57 57 58 57 57 56 55 55 55 55 56 56 57 56 56 57 56 56 56 55 54 52 48 44 40 37 35 32 31 31 31 31 30 30 30 30 30 30 30 31 31
57 56 56 56 56 55 55 54 53 54 54 55 55 55 55 54 54 53 52 52 50 48 46 41 37 33 31 29 28 28 27 28 29 29 28 28 28 28 28 27 27 28 28
54 53 53 53 53 52 53 53 53 52 52 52 52 52 51 50 49 49 48 46 44 40 35 31 28 26 25 25 25 26 26 26 27 27 27 27 26 25 25 24 25 25 25
50 50 50 50 50 50 50 51 51 51 50 49 48 47 47 45 44 43 42 39 36 31 27 24 21 21 21 22 23 24 25 25 25 24 23 23 24 23 23 22 22 22 22
48 49 49 49 50 50 49 48 48 47 46 46 45 43 42 40 38 36 33 30 27 23 20 18 17 18 19 21 23 23 23 23 22 22 21 20 20 20 19 19 19 19 19
47 47 48 48 48 47 46 46 45 45 44 42 40 38 35 33 31 27 25 22 19 16 15 14 15 17 19 20 20 21 20 20 20 21 19 17 17 17 16 15 15 15 15
46 46 46 46 46 45 44 43 41 40 38 36 34 31 28 25 22 20 16 14 12 11 12 13 15 16 18 18 19 19 19 19 19 19 17 16 16 15 14 13 12 12 12
Wind_Direction
282 285 288 290 290 289 288 288 286 285 285 285 284 284 284 285 285 285 285 284 284 283 282 282 282 282 281 281 280 280 280 281 281 281 280 279 279 278 278 278 277 277 277
283 282 284 286 287 288 287 287 285 285 285 286 286 285 285 285 285 286 286 285 285 284 284 283 282 282 282 281 280 280 280 280 280 280 279 278 277 276 276 276 275 275 275
283 283 283 285 287 286 285 286 284 284 285 286 286 286 285 284 284 285 285 285 284 284 283 283 284 283 283 282 281 281 280 280 280 280 280 278 277 276 276 275 274 274 274
283 283 283 284 286 285 284 285 284 285 285 285 285 285 285 284 284 284 285 285 285 285 284 284 284 284 283 282 282 281 280 280 280 280 279 278 277 276 275 274 273 273 273
280 281 282 283 284 284 285 286 284 286 285 284 284 285 284 284 285 285 286 286 286 285 285 285 284 284 284 283 283 282 281 280 280 280 279 278 278 276 275 274 273 272 271
277 279 282 282 283 284 286 289 288 287 286 284 285 286 286 285 286 287 287 287 287 287 286 286 285 285 285 285 284 283 282 281 280 280 280 279 278 277 276 275 273 272 271
279 279 282 285 288 288 289 292 290 288 288 287 288 288 289 289 288 288 287 287 287 287 287 286 285 285 286 285 284 283 282 281 281 280 279 279 277 276 275 274 273 272 271
286 284 285 289 292 292 293 295 294 292 292 292 291 291 291 290 289 289 288 288 287 287 288 287 286 286 286 286 285 284 282 282 281 280 279 279 278 276 275 273 272 272 271
290 292 291 291 294 296 296 295 296 295 295 295 294 293 293 292 290 290 290 289 288 288 288 288 288 287 286 286 285 284 282 281 281 280 279 278 277 276 275 274 272 271 270
296 297 296 295 298 300 299 298 299 299 298 297 295 294 293 293 292 292 291 290 290 290 290 290 288 287 287 286 285 284 283 281 280 279 279 277 276 275 274 273 272 270 269
302 300 300 300 302 301 299 299 300 299 298 296 295 295 294 294 293 292 292 291 291 291 290 290 289 287 287 286 285 284 283 281 280 279 277 276 276 275 274 272 271 270 269
305 303 304 305 305 303 300 300 300 298 298 296 296 296 295 295 294 293 292 291 291 291 291 290 289 288 287 286 285 284 283 282 280 279 278 277 276 275 274 273 271 270 268
303 301 303 304 303 301 300 299 298 298 297 296 296 295 295 294 294 293 292 292 291 290 291 290 290 289 288 287 286 285 284 283 282 280 279 278 277 276 275 273 272 270 267
303 301 301 301 301 300 298 297 297 296 295 295 294 294 294 293 293 293 293 292 291 290 290 290 290 290 289 288 287 286 286 285 284 282 281 280 279 277 276 274 272 270 267
302 300 299 299 299 298 297 296 294 294 293 293 293 293 293 293 293 293 293 293 292 292 291 291 290 290 289 289 289 288 288 287 286 285 283 282 280 279 277 274 272 269 266
300 299 298 297 297 296 294 293 292 293 293 293 293 293 293 294 294 294 294 294 294 294 293 292 291 290 290 291 291 290 290 289 289 287 286 283 281 279 277 274 271 268 264
299 298 297 296 295 294 293 293 293 293 293 293 293 293 294 294 295 294 295 296 296 295 295 294 293 292 292 292 292 293 293 292 291 289 287 285 282 279 277 274 272 269 265
299 298 297 295 294 293 293 292 292 292 293 294 294 294 295 296 296 296 297 297 296 296 296 295 295 295 294 295 295 295 295 294 292 290 289 287 284 281 279 276 274 271 267
298 297 296 295 294 293 292 292 292 293 294 295 295 296 297 297 297 297 297 296 297 297 297 298 297 297 297 297 298 298 297 296 295 294 292 289 287 283 281 278 275 271 268
297 296 295 294 294 293 293 293 293 293 295 296 296 297 297 297 297 297 297 297 298 299 300 301 301 300 300 301 301 301 301 300 299 298 296 293 290 287 283 280 277 272 268
296 295 294 293 293 293 293 294 294 295 296 296 297 297 297 297 297 297 298 299 300 301 302 302 303 303 303 304 305 305 305 304 303 302 300 297 294 290 285 282 278 274 269
295 294 294 294 294 294 294 294 295 296 297 297 297 297 297 298 298 299 299 300 302 303 304 304 304 305 306 307 308 309 308 307 306 305 303 300 297 293 288 284 280 275 271
294 293 293 293 294 295 295 296 296 296 296 297 297 298 299 299 299 300 302 303 305 306 306 307 309 311 312 314 314 314 314 313 311 309 307 304 300 296 291 287 283 277 270
293 293 294 294 295 295 295 295 295 296 296 297 297 297 298 299 300 302 303 305 306 308 310 313 317 319 320 320 320 321 320 320 319 318 316 312 307 302 297 291 286 280 271
295 295 295 295 295 295 295 295 295 295 296 296 297 298 299 300 302 303 304 306 307 311 316 321 324 326 327 328 329 329 330 330 330 329 328 324 320 315 308 299 292 285 273
296 296 295 295 296 295 295 295 295 296 297 298 298 299 300 301 302 304 305 307 312 318 325 330 332 333 334 336 338 339 340 341 341 340 338 335 332 329 322 313 302 292 279
Height
5865 5864 5863 5862 5861 5859 5858 5857 5856 5855 5855 5854 5853 5852 5852 5851 5851 5850 5849 5849 5848 5848 5847 5846 5845 5844 5844 5843 5842 5841 5840 5839 5839 5838 5838 5837 5837 5837 5837 5837 5837 5838 5838
5861 5860 5859 5858 5857 5855 5854 5853 5851 5850 5849 5848 5847 5846 5846 5845 5844 5843 5842 5842 5841 5840 5839 5838 5837 5836 5835 5834 5833 5832 5831 5830 5829 5828 5828 5827 5827 5827 5827 5827 5827 5828 5828
5857 5856 5854 5853 5852 5850 5849 5847 5846 5845 5844 5842 5841 5840 5839 5838 5837 5836 5835 5834 5833 5831 5830 5829 5828 5826 5825 5824 5822 5821 5820 5819 5818 5817 5816 5816 5815 5815 5815 5816 5816 5817 5817
5851 5850 5849 5848 5846 5845 5843 5842 5840 5839 5837 5836 5835 5833 5832 5831 5829 5828 5827 5825 5823 5822 5820 5818 5817 5815 5814 5812 5811 5809 5808 5807 5806 5805 5804 5803 5803 5802 5802 5803 5803 5804 5805
5845 5843 5842 5841 5840 5838 5837 5835 5834 5832 5831 5829 5827 5826 5824 5822 5821 5819 5818 5816 5813 5811 5809 5807 5805 5804 5802 5801 5799 5797 5795 5794 5793 5791 5790 5790 5789 5789 5788 5789 5789 5790 5791
5836 5835 5834 5833 5831 5831 5830 5828 5827 5825 5823 5821 5819 5817 5815 5813 5811 5810 5807 5805 5803 5800 5798 5795 5793 5791 5790 5788 5786 5784 5782 5780 5779 5777 5776 5775 5774 5774 5774 5774 5774 5775 5776
5828 5826 5826 5825 5824 5823 5822 5820 5819 5817 5816 5813 5811 5808 5806 5804 5802 5799 5797 5794 5792 5789 5786 5784 5781 5779 5776 5774 5771 5769 5767 5765 5764 5762 5760 5759 5758 5758 5758 5758 5758 5759 5760
5821 5819 5819 5818 5816 5815 5813 5812 5811 5809 5807 5804 5802 5799 5797 5795 5792 5789 5786 5783 5780 5777 5774 5771 5768 5765 5762 5759 5757 5754 5752 5750 5748 5746 5744 5743 5742 5741 5741 5741 5741 5742 5743
5814 5812 5811 5810 5808 5806 5805 5803 5802 5799 5797 5795 5792 5789 5787 5784 5781 5778 5775 5771 5767 5764 5760 5757 5754 5750 5747 5744 5741 5738 5735 5733 5731 5729 5727 5726 5725 5724 5723 5723 5723 5724 5725
5807 5805 5804 5802 5800 5798 5796 5794 5792 5789 5787 5784 5781 5779 5776 5772 5769 5766 5763 5758 5754 5750 5746 5742 5738 5734 5730 5727 5723 5720 5717 5715 5713 5711 5709 5708 5706 5705 5704 5704 5704 5705 5706
5799 5798 5796 5794 5792 5790 5787 5785 5782 5779 5776 5773 5770 5767 5764 5760 5756 5753 5750 5746 5740 5735 5730 5726 5721 5717 5713 5709 5706 5702 5699 5697 5694 5692 5690 5688 5686 5685 5684 5683 5683 5684 5685
5792 5790 5788 5785 5783 5780 5778 5775 5772 5769 5765 5762 5758 5754 5750 5747 5742 5738 5735 5731 5727 5721 5715 5709 5704 5699 5694 5691 5687 5684 5680 5677 5674 5671 5669 5666 5664 5663 5661 5661 5661 5661 5663
5783 5782 5779 5776 5773 5771 5768 5764 5760 5757 5753 5749 5745 5741 5736 5732 5727 5723 5719 5716 5712 5707 5700 5693 5685 5680 5675 5671 5668 5663 5660 5656 5652 5649 5646 5643 5641 5639 5637 5637 5636 5637 5638
5775 5772 5770 5766 5763 5759 5756 5752 5748 5744 5740 5736 5731 5727 5722 5717 5712 5707 5703 5699 5696 5692 5686 5678 5669 5661 5656 5652 5648 5643 5639 5634 5630 5626 5623 5620 5617 5614 5613 5612 5611 5611 5613
5765 5762 5759 5755 5751 5747 5743 5739 5735 5730 5726 5722 5717 5712 5707 5701 5696 5691 5686 5681 5678 5675 5672 5664 5654 5646 5638 5633 5628 5623 5619 5613 5608 5604 5600 5596 5593 5590 5588 5587 5586 5587 5588
5753 5750 5746 5742 5737 5733 5729 5725 5721 5716 5711 5707 5702 5697 5691 5686 5681 5675 5670 5664 5659 5655 5653 5647 5638 5630 5622 5616 5610 5604 5599 5593 5588 5582 5578 5574 5571 5568 5566 5565 5564 5564 5565
5741 5737 5732 5728 5723 5719 5714 5710 5705 5701 5696 5691 5687 5682 5676 5671 5665 5660 5654 5648 5642 5637 5633 5629 5620 5612 5605 5598 5592 5586 5580 5574 5569 5564 5560 5556 5553 5551 5548 5547 5546 5546 5546
5726 5722 5717 5713 5708 5704 5699 5695 5690 5686 5681 5677 5672 5667 5661 5656 5650 5645 5638 5632 5626 5620 5615 5611 5604 5596 5588 5581 5576 5570 5564 5558 5554 5550 5546 5542 5539 5537 5535 5533 5532 5532 5532
5712 5707 5702 5698 5693 5689 5684 5680 5675 5671 5666 5662 5657 5652 5647 5641 5636 5630 5623 5617 5611 5605 5599 5594 5588 5580 5573 5567 5562 5557 5551 5546 5542 5539 5535 5532 5529 5526 5524 5522 5520 5520 5519
5697 5693 5688 5683 5679 5674 5670 5665 5661 5657 5652 5648 5643 5638 5632 5627 5622 5616 5610 5603 5597 5591 5585 5579 5573 5567 5561 5556 5551 5547 5543 5538 5534 5530 5526 5522 5519 5516 5513 5511 5510 5509 5508
5683 5678 5673 5668 5664 5660 5655 5651 5647 5643 5639 5634 5629 5624 5618 5613 5608 5602 5597 5591 5585 5579 5573 5567 5562 5558 5553 5548 5544 5540 5536 5531 5526 5522 5518 5514 5510 5507 5505 5502 5501 5499 5499
5668 5664 5659 5655 5651 5646 5642 5638 5634 5630 5626 5621 5616 5610 5605 5600 5595 5589 5584 5579 5574 5569 5564 5559 5555 5551 5547 5542 5538 5533 5529 5525 5521 5516 5511 5507 5502 5500 5497 5494 5493 5491 5490
5655 5651 5647 5642 5638 5634 5630 5625 5621 5617 5613 5608 5603 5598 5593 5588 5584 5579 5574 5569 5564 5560 5556 5552 5549 5545 5541 5537 5533 5529 5523 5518 5514 5510 5505 5500 5496 5493 5490 5487 5485 5484 5483
5643 5639 5634 5630 5626 5622 5617 5613 5609 5605 5600 5597 5592 5588 5583 5578 5574 5570 5566 5561 5557 5554 5551 5548 5545 5541 5537 5533 5529 5524 5519 5514 5509 5504 5499 5495 5491 5487 5484 5481 5479 5477 5477
5631 5626 5622 5618 5613 5609 5605 5601 5597 5592 5589 5585 5581 5578 5574 5570 5566 5563 5559 5556 5553 5550 5548 5545 5542 5538 5534 5530 5525 5520 5515 5511 5506 5500 5495 5491 5487 5483 5479 5476 5474 5472 5471
5619 5614 5610 5606 5601 5597 5593 5589 5585 5581 5578 5575 5572 5569 5566 5563 5560 5557 5555 5553 5550 5548 5546 5543 5540 5536 5532 5527 5523 5518 5513 5508 5503 5498 5493 5488 5484 5479 5476 5473 5470 5468 5467